Location: Buchdorf
(48.7842°N, 10.8275°E)
Time: 18:03:03
(UTC+00:00)

Terra - Pass Details

Date: 09 April 2020
Orbit: 701 x 703 km, 98.2° (Epoch: 02 June)

Event Time Altitude Azimuth Distance (km) Brightness Sun altitude
Exits shadow 22:08:21 26° 282° (WNW) 1,365 3.5 -31.2°
Drops below altitude 10° 22:11:41 10° 325° (NW) 2,182 5.2 -31.4°
Sets 22:14:15 0° 337° (NNW) 3,106 6.3 -31.5°
